RYR99CN EPKK-EKCH

Flight info

Callsign RYR99CN
Flight time N/A
Altitude 38000
Route LUMVE L619 ADVAB L617 ROE M743 TIDVU
Aircraft B738/M-SDE2E3FGHIRWXY/LB1

Departure

Time 2026-05-04 19:16
Airport Kraków John Paul II International Airport (EPKK)

Arrival

Time N/A
Airport Copenhagen Kastrup Airport (EKCH)
Time Latitude Longitude Altitude Speed Heading
2026-05-04 18:36 50.07316 19.79920 789 ft 0 kts 167°
2026-05-04 19:01 50.07331 19.79914 788 ft 2 kts 165°
2026-05-04 19:01 50.07347 19.79907 788 ft 2 kts 159°
2026-05-04 19:01 50.07362 19.79896 788 ft 2 kts 150°
2026-05-04 19:01 50.07375 19.79881 788 ft 2 kts 120°
2026-05-04 19:02 50.07378 19.79859 788 ft 1 kts 77°
2026-05-04 19:02 50.07378 19.79858 788 ft 0 kts 77°
2026-05-04 19:07 50.07380 19.79870 762 ft 3 kts 77°
2026-05-04 19:07 50.07387 19.79925 789 ft 7 kts 78°
2026-05-04 19:08 50.07399 19.80025 789 ft 11 kts 79°
2026-05-04 19:08 50.07413 19.80112 789 ft 14 kts 77°
2026-05-04 19:08 50.07444 19.80332 790 ft 17 kts 71°
2026-05-04 19:08 50.07536 19.80410 790 ft 14 kts 17°
2026-05-04 19:09 50.07596 19.80420 790 ft 12 kts 352°
2026-05-04 19:09 50.07667 19.80397 790 ft 9 kts 348°
2026-05-04 19:09 50.07722 19.80379 790 ft 8 kts 348°
2026-05-04 19:09 50.07774 19.80361 790 ft 5 kts 347°
2026-05-04 19:10 50.07797 19.80352 790 ft 0 kts 347°
2026-05-04 19:11 50.07806 19.80349 790 ft 0 kts 347°
2026-05-04 19:12 50.07821 19.80344 790 ft 2 kts 348°
2026-05-04 19:12 50.07824 19.80343 790 ft 1 kts 348°
2026-05-04 19:13 50.07841 19.80337 790 ft 3 kts 348°
2026-05-04 19:13 50.07852 19.80333 790 ft 1 kts 348°
2026-05-04 19:13 50.07863 19.80330 790 ft 2 kts 348°
2026-05-04 19:13 50.07890 19.80321 790 ft 7 kts 347°
2026-05-04 19:14 50.07964 19.80294 789 ft 15 kts 346°
2026-05-04 19:14 50.08009 19.80179 789 ft 15 kts 263°
2026-05-04 19:14 50.08004 19.80138 789 ft 0 kts 258°
2026-05-04 19:14 50.08004 19.80137 789 ft 0 kts 258°
2026-05-04 19:15 50.08003 19.80125 789 ft 5 kts 258°
2026-05-04 19:15 50.07965 19.79849 788 ft 60 kts 258°
2026-05-04 19:15 50.07826 19.78852 792 ft 127 kts 258°
2026-05-04 19:15 50.07597 19.77230 898 ft 171 kts 257°
2026-05-04 19:16 50.07339 19.75377 1575 ft 179 kts 258°
2026-05-04 19:16 50.07087 19.73488 2496 ft 173 kts 256°
2026-05-04 19:16 50.06825 19.71615 3192 ft 189 kts 256°
2026-05-04 19:16 50.06518 19.69463 3399 ft 218 kts 256°
2026-05-04 19:17 50.06207 19.67010 3666 ft 245 kts 265°
2026-05-04 19:17 50.06682 19.64414 4393 ft 260 kts 300°
2026-05-04 19:17 50.07752 19.62141 5372 ft 262 kts 304°
2026-05-04 19:17 50.08862 19.59890 6183 ft 268 kts 305°
2026-05-04 19:18 50.10007 19.57581 7037 ft 271 kts 305°
2026-05-04 19:18 50.11167 19.55234 7865 ft 275 kts 304°
2026-05-04 19:18 50.12342 19.52843 8687 ft 280 kts 304°
2026-05-04 19:18 50.13528 19.50416 9521 ft 284 kts 304°
2026-05-04 19:19 50.14730 19.47945 10280 ft 290 kts 304°
2026-05-04 19:19 50.16018 19.45375 10553 ft 315 kts 308°
2026-05-04 19:19 50.17587 19.42810 10845 ft 336 kts 312°
2026-05-04 19:19 50.19295 19.40251 11510 ft 343 kts 313°
2026-05-04 19:20 50.21040 19.37684 12303 ft 346 kts 313°
2026-05-04 19:20 50.22794 19.35096 13114 ft 348 kts 313°
2026-05-04 19:20 50.24557 19.32470 13890 ft 352 kts 312°
2026-05-04 19:20 50.26326 19.29812 14576 ft 355 kts 312°
2026-05-04 19:21 50.28113 19.27107 15273 ft 358 kts 312°
2026-05-04 19:21 50.29908 19.24376 15970 ft 362 kts 312°
2026-05-04 19:21 50.31714 19.21615 16650 ft 365 kts 312°
2026-05-04 19:21 50.33540 19.18818 17329 ft 369 kts 312°
2026-05-04 19:22 50.35377 19.15996 18014 ft 372 kts 312°
2026-05-04 19:22 50.37233 19.13142 18634 ft 375 kts 312°
2026-05-04 19:22 50.39101 19.10265 19234 ft 378 kts 313°
2026-05-04 19:22 50.40981 19.07367 19836 ft 380 kts 313°
2026-05-04 19:23 50.42875 19.04442 20414 ft 383 kts 313°
2026-05-04 19:23 50.44783 19.01494 20970 ft 387 kts 313°
2026-05-04 19:23 50.46705 18.98519 21550 ft 390 kts 313°
2026-05-04 19:23 50.48641 18.95519 22101 ft 392 kts 314°
2026-05-04 19:24 50.50570 18.92526 22635 ft 396 kts 314°
2026-05-04 19:24 50.52536 18.89472 23158 ft 399 kts 314°
2026-05-04 19:24 50.54512 18.86400 23669 ft 402 kts 314°
2026-05-04 19:24 50.56502 18.83300 24113 ft 404 kts 314°
2026-05-04 19:25 50.58505 18.80177 24570 ft 406 kts 314°
2026-05-04 19:25 50.60511 18.77045 25030 ft 407 kts 314°
2026-05-04 19:25 50.62527 18.73893 25469 ft 409 kts 314°
2026-05-04 19:25 50.64552 18.70724 25896 ft 411 kts 313°
2026-05-04 19:26 50.66583 18.67540 26316 ft 413 kts 313°
2026-05-04 19:26 50.68629 18.64329 26725 ft 415 kts 313°
2026-05-04 19:26 50.70680 18.61106 27137 ft 417 kts 313°
2026-05-04 19:26 50.72742 18.57862 27538 ft 419 kts 313°
2026-05-04 19:27 50.74812 18.54600 27928 ft 421 kts 313°
2026-05-04 19:27 50.76892 18.51318 28307 ft 423 kts 313°
2026-05-04 19:27 50.78951 18.48065 28681 ft 425 kts 313°
2026-05-04 19:27 50.81051 18.44743 29051 ft 427 kts 313°
2026-05-04 19:28 50.83154 18.41412 29393 ft 429 kts 313°
2026-05-04 19:28 50.85268 18.38058 29744 ft 431 kts 313°
2026-05-04 19:28 50.87389 18.34689 30072 ft 433 kts 313°
2026-05-04 19:28 50.89522 18.31298 30366 ft 434 kts 313°
2026-05-04 19:29 50.91662 18.27889 30650 ft 435 kts 313°
2026-05-04 19:29 50.93794 18.24488 30997 ft 435 kts 313°
2026-05-04 19:29 50.95919 18.21096 31440 ft 432 kts 313°
2026-05-04 19:29 50.98029 18.17723 31878 ft 429 kts 313°
2026-05-04 19:30 51.00103 18.14402 32233 ft 429 kts 313°
2026-05-04 19:30 51.02200 18.11040 32561 ft 428 kts 313°
2026-05-04 19:30 51.04292 18.07679 32936 ft 427 kts 313°
2026-05-04 19:30 51.06376 18.04328 33286 ft 425 kts 312°
2026-05-04 19:31 51.08450 18.00988 33590 ft 424 kts 312°
2026-05-04 19:31 51.10525 17.97643 33869 ft 424 kts 312°
2026-05-04 19:31 51.12587 17.94313 34167 ft 422 kts 312°
2026-05-04 19:31 51.14639 17.90996 34482 ft 419 kts 312°
2026-05-04 19:32 51.16685 17.87684 34755 ft 418 kts 312°
2026-05-04 19:32 51.18727 17.84373 34982 ft 418 kts 312°
2026-05-04 19:32 51.20844 17.81178 35160 ft 421 kts 319°
2026-05-04 19:32 51.23281 17.78552 35366 ft 424 kts 328°
2026-05-04 19:33 51.25920 17.76548 35615 ft 425 kts 333°
2026-05-04 19:33 51.28627 17.74636 35837 ft 425 kts 333°
2026-05-04 19:33 51.31339 17.72740 36043 ft 425 kts 333°
2026-05-04 19:33 51.34052 17.70836 36236 ft 425 kts 333°
2026-05-04 19:34 51.36753 17.68925 36443 ft 425 kts 333°
2026-05-04 19:34 51.39451 17.67002 36664 ft 424 kts 332°
2026-05-04 19:34 51.42147 17.65068 36857 ft 424 kts 332°
2026-05-04 19:34 51.44838 17.63127 37043 ft 424 kts 332°
2026-05-04 19:35 51.47527 17.61183 37238 ft 424 kts 332°
2026-05-04 19:35 51.50215 17.59235 37431 ft 424 kts 332°
2026-05-04 19:35 51.52908 17.57280 37603 ft 424 kts 332°
2026-05-04 19:35 51.55594 17.55327 37776 ft 424 kts 332°
2026-05-04 19:36 51.58279 17.53372 37919 ft 424 kts 332°
2026-05-04 19:36 51.63680 17.49432 37934 ft 426 kts 332°
2026-05-04 19:37 51.69030 17.45524 37935 ft 423 kts 332°
2026-05-04 19:37 51.74373 17.41609 37940 ft 420 kts 332°
2026-05-04 19:38 51.79686 17.37705 37946 ft 420 kts 332°
2026-05-04 19:38 51.85041 17.33757 37950 ft 424 kts 332°
2026-05-04 19:39 51.90375 17.29817 37936 ft 423 kts 332°
2026-05-04 19:39 51.95723 17.25857 37936 ft 421 kts 332°
2026-05-04 19:40 52.01058 17.21897 37942 ft 422 kts 332°
2026-05-04 19:40 52.06404 17.17915 37948 ft 424 kts 332°
2026-05-04 19:41 52.11769 17.13910 37936 ft 424 kts 332°
2026-05-04 19:41 52.17117 17.09908 37941 ft 422 kts 332°
2026-05-04 19:42 52.22458 17.05901 37941 ft 422 kts 331°
2026-05-04 19:42 52.27794 17.01885 37942 ft 422 kts 331°
2026-05-04 19:43 52.33126 16.97862 37943 ft 422 kts 331°
2026-05-04 19:43 52.38453 16.93832 37943 ft 422 kts 331°
2026-05-04 19:44 52.43794 16.89781 37947 ft 423 kts 331°
2026-05-04 19:44 52.49150 16.85706 37946 ft 425 kts 331°
2026-05-04 19:45 52.54485 16.81639 37933 ft 424 kts 331°
2026-05-04 19:45 52.59820 16.77561 37937 ft 422 kts 331°
2026-05-04 19:46 52.65133 16.73488 37942 ft 420 kts 330°
2026-05-04 19:46 52.70429 16.69416 37944 ft 419 kts 330°
2026-05-04 19:47 52.75711 16.65344 37949 ft 419 kts 330°
2026-05-04 19:47 52.80995 16.61259 37961 ft 420 kts 330°
2026-05-04 19:48 52.86313 16.57135 37956 ft 423 kts 330°
2026-05-04 19:48 52.91608 16.53021 37946 ft 422 kts 330°
2026-05-04 19:49 52.96921 16.48882 37960 ft 421 kts 330°
2026-05-04 19:49 53.01981 16.44134 37974 ft 416 kts 322°
2026-05-04 19:50 53.06779 16.38652 37965 ft 418 kts 321°
2026-05-04 19:50 53.11542 16.33170 37957 ft 418 kts 321°
2026-05-04 19:51 53.16349 16.27693 37970 ft 418 kts 321°
2026-05-04 19:51 53.21155 16.22242 37964 ft 417 kts 321°
2026-05-04 19:52 53.25960 16.16786 37974 ft 419 kts 321°
2026-05-04 19:52 53.30788 16.11290 37975 ft 420 kts 321°
2026-05-04 19:53 53.35624 16.05771 37969 ft 420 kts 321°
2026-05-04 19:53 53.40412 16.00292 37972 ft 419 kts 321°
2026-05-04 19:54 53.45228 15.94763 37978 ft 420 kts 321°
2026-05-04 19:54 53.50053 15.89207 37984 ft 421 kts 321°
2026-05-04 19:55 53.54884 15.83631 37975 ft 421 kts 321°
2026-05-04 19:55 53.59709 15.78046 37982 ft 421 kts 321°
2026-05-04 19:56 53.63714 15.73397 37983 ft 421 kts 321°
2026-05-04 19:56 53.68540 15.67782 37982 ft 421 kts 321°
2026-05-04 19:57 53.73366 15.62149 37985 ft 422 kts 321°
2026-05-04 19:57 53.78190 15.56504 37982 ft 422 kts 321°
2026-05-04 19:58 53.83024 15.50831 37986 ft 422 kts 321°
2026-05-04 19:58 53.87855 15.45145 37983 ft 423 kts 321°
2026-05-04 19:58 53.90252 15.42316 37750 ft 428 kts 321°
2026-05-04 19:59 53.92695 15.39430 37391 ft 424 kts 320°
2026-05-04 19:59 53.95120 15.36562 36942 ft 425 kts 320°
2026-05-04 19:59 53.97547 15.33689 36581 ft 424 kts 320°
2026-05-04 19:59 53.99969 15.30817 36171 ft 423 kts 320°
2026-05-04 20:00 54.02344 15.27997 36009 ft 420 kts 320°
2026-05-04 20:00 54.07172 15.22244 35485 ft 427 kts 320°
2026-05-04 20:00 54.09603 15.19342 35074 ft 423 kts 319°
2026-05-04 20:01 54.12003 15.16480 34655 ft 418 kts 319°
2026-05-04 20:01 54.14370 15.13652 34251 ft 414 kts 319°
2026-05-04 20:01 54.16725 15.10831 33796 ft 414 kts 319°
2026-05-04 20:01 54.19084 15.07998 33246 ft 414 kts 318°
2026-05-04 20:02 54.21417 15.05191 32713 ft 415 kts 318°
2026-05-04 20:02 54.23779 15.02346 32187 ft 416 kts 318°
2026-05-04 20:02 54.26149 14.99486 31707 ft 417 kts 318°
2026-05-04 20:02 54.28523 14.96619 31299 ft 420 kts 318°
2026-05-04 20:03 54.30916 14.93724 30881 ft 422 kts 317°
2026-05-04 20:03 54.33318 14.90816 30474 ft 423 kts 317°
2026-05-04 20:03 54.35719 14.87907 30068 ft 423 kts 317°
2026-05-04 20:03 54.38124 14.84988 29602 ft 424 kts 317°
2026-05-04 20:04 54.40534 14.82058 29185 ft 426 kts 317°
2026-05-04 20:04 54.42957 14.79105 28738 ft 428 kts 317°
2026-05-04 20:04 54.45388 14.76141 28301 ft 429 kts 318°
2026-05-04 20:04 54.47793 14.73203 27867 ft 430 kts 318°
2026-05-04 20:05 54.50269 14.70176 27408 ft 431 kts 318°
2026-05-04 20:05 54.52690 14.67211 26982 ft 432 kts 318°
2026-05-04 20:05 54.55141 14.64205 26532 ft 433 kts 318°
2026-05-04 20:05 54.57592 14.61197 26096 ft 430 kts 318°
2026-05-04 20:06 54.60025 14.58207 25648 ft 428 kts 318°
2026-05-04 20:06 54.62442 14.55232 25214 ft 425 kts 318°
2026-05-04 20:06 54.64834 14.52284 24782 ft 420 kts 318°
2026-05-04 20:06 54.67201 14.49361 24355 ft 417 kts 318°
2026-05-04 20:07 54.69561 14.46440 23939 ft 417 kts 318°
2026-05-04 20:07 54.71923 14.43509 23514 ft 416 kts 318°
2026-05-04 20:07 54.74268 14.40597 23019 ft 413 kts 319°
2026-05-04 20:07 54.76582 14.37722 22587 ft 406 kts 319°
2026-05-04 20:08 54.78863 14.34886 22163 ft 401 kts 319°
2026-05-04 20:08 54.81116 14.32080 21748 ft 396 kts 319°
2026-05-04 20:08 54.83306 14.29346 21340 ft 391 kts 319°
2026-05-04 20:08 54.85504 14.26598 20939 ft 388 kts 319°
2026-05-04 20:09 54.87690 14.23859 20543 ft 387 kts 319°
2026-05-04 20:09 54.89865 14.21129 20142 ft 385 kts 319°
2026-05-04 20:09 54.92036 14.18401 19745 ft 385 kts 319°
2026-05-04 20:09 54.94202 14.15677 19348 ft 383 kts 320°
2026-05-04 20:10 54.96350 14.12975 18948 ft 378 kts 320°
2026-05-04 20:10 54.98463 14.10315 18558 ft 372 kts 320°
2026-05-04 20:10 55.00544 14.07691 18166 ft 366 kts 320°
2026-05-04 20:10 55.02592 14.05104 17742 ft 361 kts 320°
2026-05-04 20:11 55.04612 14.02550 17347 ft 356 kts 320°
2026-05-04 20:11 55.06607 14.00021 16982 ft 352 kts 320°
2026-05-04 20:11 55.08571 13.97530 16608 ft 347 kts 320°
2026-05-04 20:11 55.10512 13.95066 16245 ft 342 kts 320°
2026-05-04 20:12 55.12427 13.92629 15890 ft 340 kts 319°
2026-05-04 20:12 55.14311 13.90229 15542 ft 337 kts 319°
2026-05-04 20:12 55.16201 13.87819 15192 ft 335 kts 319°
2026-05-04 20:12 55.18077 13.85424 14842 ft 332 kts 319°
2026-05-04 20:13 55.19934 13.83052 14499 ft 328 kts 319°
2026-05-04 20:13 55.21768 13.80706 14154 ft 325 kts 319°
2026-05-04 20:13 55.23579 13.78387 13818 ft 321 kts 319°
2026-05-04 20:13 55.25328 13.75945 13330 ft 318 kts 315°
2026-05-04 20:14 55.26975 13.73434 13096 ft 311 kts 314°
2026-05-04 20:14 55.28574 13.70942 12847 ft 304 kts 314°
2026-05-04 20:14 55.30138 13.68502 12599 ft 298 kts 314°
2026-05-04 20:14 55.31678 13.66108 12369 ft 292 kts 314°
2026-05-04 20:15 55.33190 13.63764 12127 ft 288 kts 314°
2026-05-04 20:15 55.34687 13.61448 11892 ft 286 kts 314°
2026-05-04 20:15 55.36180 13.59141 11673 ft 285 kts 314°
2026-05-04 20:15 55.37673 13.56835 11449 ft 285 kts 315°
2026-05-04 20:16 55.39153 13.54550 11219 ft 286 kts 315°
2026-05-04 20:16 55.40644 13.52249 10961 ft 284 kts 315°
2026-05-04 20:16 55.42116 13.49977 10722 ft 279 kts 315°
2026-05-04 20:16 55.43569 13.47734 10475 ft 276 kts 315°
2026-05-04 20:17 55.45000 13.45521 10232 ft 272 kts 315°
2026-05-04 20:17 55.46416 13.43331 9988 ft 270 kts 315°
2026-05-04 20:17 55.47821 13.41154 9690 ft 268 kts 315°
2026-05-04 20:17 55.49216 13.38990 9372 ft 266 kts 315°
2026-05-04 20:18 55.50591 13.36856 9046 ft 261 kts 315°
2026-05-04 20:18 55.51947 13.34751 8724 ft 257 kts 315°
2026-05-04 20:18 55.53281 13.32677 8418 ft 253 kts 315°
2026-05-04 20:18 55.54594 13.30634 8105 ft 250 kts 315°
2026-05-04 20:19 55.55885 13.28623 7812 ft 246 kts 315°
2026-05-04 20:19 55.57155 13.26640 7516 ft 246 kts 315°
2026-05-04 20:19 55.58431 13.24649 7214 ft 243 kts 315°
2026-05-04 20:19 55.59690 13.22683 6912 ft 240 kts 315°
2026-05-04 20:20 55.60936 13.20734 6622 ft 238 kts 315°
2026-05-04 20:20 55.62165 13.18809 6330 ft 234 kts 314°
2026-05-04 20:20 55.63258 13.16717 5983 ft 228 kts 306°
2026-05-04 20:20 55.64244 13.14544 5649 ft 225 kts 305°
2026-05-04 20:21 55.65208 13.12388 5326 ft 221 kts 305°
2026-05-04 20:21 55.66153 13.10263 5007 ft 217 kts 305°
2026-05-04 20:21 55.67994 13.06084 4408 ft 215 kts 305°
2026-05-04 20:22 55.68912 13.03970 4114 ft 217 kts 305°
2026-05-04 20:22 55.69817 13.01869 4012 ft 209 kts 305°
2026-05-04 20:22 55.70685 12.99851 4013 ft 204 kts 305°
2026-05-04 20:22 55.71544 12.97851 4002 ft 202 kts 305°
2026-05-04 20:23 55.72383 12.95900 3958 ft 196 kts 305°
2026-05-04 20:23 55.73196 12.94006 3664 ft 192 kts 305°
2026-05-04 20:23 55.73986 12.92155 3378 ft 185 kts 305°
2026-05-04 20:23 55.74718 12.90321 3087 ft 179 kts 294°
2026-05-04 20:24 55.74920 12.88183 2814 ft 177 kts 271°
2026-05-04 20:24 55.74639 12.86038 2541 ft 181 kts 245°
2026-05-04 20:24 55.73832 12.84304 2234 ft 184 kts 224°
2026-05-04 20:24 55.72881 12.82848 2041 ft 175 kts 225°
2026-05-04 20:25 55.71966 12.81420 2008 ft 177 kts 225°
2026-05-04 20:25 55.71065 12.80016 1998 ft 171 kts 225°
2026-05-04 20:25 55.70197 12.78666 2004 ft 163 kts 225°
2026-05-04 20:25 55.69335 12.77320 1980 ft 163 kts 225°
2026-05-04 20:26 55.68499 12.76019 2000 ft 156 kts 225°
2026-05-04 20:26 55.67689 12.74756 1970 ft 156 kts 225°
2026-05-04 20:26 55.66868 12.73476 1741 ft 159 kts 226°
2026-05-04 20:26 55.66083 12.72260 2001 ft 151 kts 226°
2026-05-04 20:27 55.65262 12.70979 1847 ft 163 kts 225°
2026-05-04 20:27 55.64335 12.69531 2138 ft 199 kts 225°
2026-05-04 20:27 55.63262 12.67863 2318 ft 205 kts 224°
2026-05-04 20:27 55.62209 12.66239 2587 ft 202 kts 224°
2026-05-04 20:28 55.61136 12.64584 2921 ft 202 kts 224°
2026-05-04 20:28 55.60085 12.62955 2975 ft 205 kts 221°
2026-05-04 20:28 55.58814 12.61838 2993 ft 208 kts 195°
2026-05-04 20:28 55.57449 12.61007 2988 ft 211 kts 218°
2026-05-04 20:29 55.56556 12.58980 2992 ft 213 kts 252°
2026-05-04 20:29 55.56475 12.56433 3001 ft 208 kts 281°
2026-05-04 20:29 55.56880 12.53982 2984 ft 209 kts 299°
2026-05-04 20:29 55.57931 12.52204 3000 ft 216 kts 333°
2026-05-04 20:30 55.59412 12.51758 3009 ft 221 kts
2026-05-04 20:30 55.60947 12.52040 2999 ft 221 kts
2026-05-04 20:30 55.62449 12.52387 2987 ft 221 kts
2026-05-04 20:30 55.63970 12.52747 2991 ft 220 kts
2026-05-04 20:31 55.65488 12.53113 2986 ft 220 kts
2026-05-04 20:31 55.66799 12.53435 2985 ft 221 kts